DECAYED
Showing default

ASAP-S, 44875 (Decayed)

Orbit data source: Space-Track

ASAP-S, 44875 was a payload satellite owned by CNES (FR) in LEO that was launched on Wed, 18 Dec 2019 UTC launched from the French Guiana (FRGUI). Payloads include a variety of satellites, spacecraft, and rockets equipped with specific instruments for various scientific and technological missions. These include communications satellites like Starlink; space stations such as the ISS; scientific satellites like the Hubble; Earth observation satellites from companies like Planet Labs, Umbra, and HawkEye 360; GPS; miniature CubeSats for education and research; and military/defense satellites.

Loading next visibility...
ASAP-S details
Identifier
44875, 2019-092C
Orbit
Decayed
Last TLE update8 months ago
Origin
Flag of FRCNES (FR)
ManufacturerAirbus Barajas
MissionDecayed spacecraft
Bus & MotorDISPENSER, Unknown motor
Mass400 kg wet, 400 kg dry
Launch date (UTC)
2019-12-18 (5 years ago)
Launch vehicleUnknown
Launch site
French Guiana (FRGUI)
Object type
Payload
Rocket body
Debris
Shape & HBRIrr, Unknown HBR
Radar Cross Section1.920 m², Large (>1 m²)

Expand to show TLE details & history

TLE from 8 months ago
0 ASAP-S
1 44875U 19092C   24125.77153734  .23791360  29790-5  34134-3 0  9991
2 44875  97.8445  63.1975 0011122 227.1037 192.4774 16.48338510243346
Epoch: 2024-05-04T18:31Z
Definitive object data (Epoch: 2024-05-04T18:31:00.826Z)
Latitude58.76117°
Longitude-90.74141°
Altitude160.804 km
Speed7.811 km/s
True Right ascension03h 20m 34s
True Declination58° 35' 40"
Sunlit
Object was in daylight at TLE epoch
Visualization TLE readout
Latitude56.38857°
Longitude-112.02529°
Altitude7,198.991 km
Speed4.546 km/s
Apparent Right ascension01h 59m 51s
Apparent Declination30° 08' 54"
Sunlit
Object is in daylight
Visualization observer readout
Local Sidereal Time14:06:39
Azimuth1.561° NNE
Elevation-19.918°
Doppler factor1
Orbital elements
Apogee altitude147.782 km
Perigee altitude133.282 km
Semi-major axis6,518.669 km
Eccentricity0.0011122
Inclination97.8445°
RAAN63.1975°
Arg. of periapsis227.1037°
True anomaly192.4499°
Mean anomaly192.4774°
Eccentric anomaly192.46365°
Mean motion4.12387 °/min
BSTAR0.00034134
Orbital period87.3 mins
Loading maneuver chart data...
Loading historical data...
Loading historical data...
Loading historical data...
Loading historical data...
Loading historical data...
Loading historical data...
Loading historical data...

ASAP-S Visibility forecast

Observer location: undefined°, undefined

Span
Click to sort rows by Start time (UTC) header in descending order
Start Az.
Max El. time (UTC)
Max El. Az.
Max El.
End time (UTC)
End Az.
4 mins2024-12-27 02:17:45.820Z17.856° NNE2024-12-27 02:18:45.820Z42.802° NE43.52°2024-12-27 02:21:45.820Z180.414° SSW
|